ロニオス彗星

267P/LONEOS (2024)

English version
Home page
Updated on January 6, 2024

---------------------------------------------------------------------

・ プロフィール

・ 軌道要素

Epoch 2024 May 10.0 TT = JDT 2460440.5
T 2024 Apr. 24.81439 TT                                 MPCW
q   1.2379594            (2000.0)            P               Q
n   0.17145239     Peri.  114.27368     +0.95152757     +0.29691155
a   3.2090293      Node   228.56033     -0.30641993     +0.89268101
e   0.6142262      Incl.    6.14466     -0.02649732     +0.33906363
P   5.75
From 192 observations 2006 Aug. 29-2018 Nov. 17, mean residual 0".5.
     Nongravitational parameters A1 = -0.06, A2 = -0.0033.

・ 光度変化

        m1 = 19.5 + 5 logΔ + 10.0 log r

---------------------------------------------------------------------

軌道要素はM.P.E.C. 2019-J142に掲載されたものです。
光度グラフはComet for Windowsで作成したものです。

---------------------------------------------------------------------

Copyright(C) Seiichi Yoshida (comet@aerith.net). All rights reserved.